Location: Weatherford
(35.5260°N, 98.7070°W)
Time: 12:24:59
(UTC-05:00)

OPAL - Visible Passes

Search period start: 25 May 2015 00:00
Search period end: 04 June 2015 00:00
Orbit: 744 x 795 km, 100.2° (Epoch: 25 May)

Date Brightness Start Highest point End Pass type
(mag) Time Alt. Az. Time Alt. Az. Time Alt. Az.
25 May 8.1 21:10:19 10° NNE 21:15:05 37° E 21:19:50 10° SSE visible
25 May 9.8 22:49:38 10° NNW 22:53:47 24° WNW 22:57:46 10° WSW visible
26 May 8.4 22:13:36 10° N 22:18:39 52° WNW 22:23:37 10° SW visible
27 May 7.5 21:38:11 10° NNE 21:43:22 69° ESE 21:48:29 10° S visible
27 May 10.4 23:19:08 10° NNW 23:21:44 14° WNW 23:24:03 10° W visible
28 May 9.5 22:42:15 10° N 22:46:42 29° WNW 22:51:02 10° SW visible
29 May 8.0 22:06:23 10° N 22:11:33 65° WNW 22:16:36 10° SSW visible
30 May 7.6 21:31:08 10° NNE 21:36:13 55° ESE 21:41:13 10° S visible
30 May 10.3 23:11:24 10° NNW 23:14:41 17° WNW 23:17:43 10° W visible
31 May 9.1 22:34:55 10° N 22:39:37 35° WNW 22:44:12 10° SW visible
01 Jun 7.6 21:59:14 10° NNE 22:04:25 81° WNW 22:09:30 10° SSW visible
02 Jun 7.9 21:24:07 10° NNE 21:29:01 44° E 21:33:52 10° S visible
02 Jun 10.0 23:03:51 10° NNW 23:07:37 20° WNW 23:11:12 10° WSW visible
03 Jun 8.7 22:27:38 10° N 22:32:31 44° WNW 22:37:18 10° SW visible
